Theta_e
311 312 312 312 312 313 313 312 312 311 310 308 307 307 308 308 311 310 311 312 311 315 313 312 312 313 316 316 316 314 310 313 318 322 322 320 319 328 329 328 327 328 333 333 334
312 312 313 313 313 313 313 312 312 311 309 307 308 308 308 311 311 312 312 311 311 315 315 312 315 316 316 317 317 312 310 312 312 314 322 324 322 326 328 327 326 327 333 335 335
313 313 313 313 313 313 313 312 312 311 309 308 308 308 310 312 313 314 312 316 315 315 315 315 314 314 317 316 316 312 312 310 314 315 317 318 316 323 326 326 326 330 336 338 335
313 313 313 313 313 313 313 312 311 310 308 308 308 310 312 312 317 317 318 318 317 317 316 316 315 315 316 315 315 312 312 311 313 314 315 317 316 325 322 324 327 325 328 335 329
314 313 312 312 313 313 313 312 311 309 308 308 309 311 312 314 316 317 316 316 316 317 317 315 314 316 316 315 313 312 311 312 312 313 314 314 316 321 317 325 326 328 329 329 328
313 312 311 312 312 313 312 311 310 309 308 308 310 311 313 316 318 318 316 316 316 317 316 316 315 315 317 312 314 313 311 311 313 311 312 312 313 315 315 324 326 327 327 327 326
313 313 311 312 312 312 311 310 309 308 308 310 311 313 314 316 317 317 316 316 316 316 317 317 316 317 318 312 312 312 311 311 312 314 312 316 314 313 318 327 326 326 327 327 328
315 314 312 312 312 311 310 309 308 309 310 311 313 314 314 316 317 318 316 316 316 316 317 317 317 317 315 313 313 311 309 311 312 314 313 312 310 310 323 327 325 324 323 323 324
315 314 312 312 311 310 309 309 309 311 312 314 316 316 315 316 317 317 316 316 317 318 318 316 316 314 312 310 310 309 311 314 315 313 314 312 314 313 315 326 323 324 324 324 324
315 314 312 311 310 309 309 310 311 312 314 316 319 316 314 317 316 316 316 315 318 318 317 318 316 311 310 309 311 311 313 312 314 313 312 312 316 314 316 322 319 322 324 324 325
315 312 311 311 310 310 311 312 316 316 317 313 313 315 317 317 315 316 316 316 318 318 315 315 312 312 313 312 311 313 314 313 312 313 314 315 315 313 318 318 318 319 321 322 324
314 312 311 310 310 311 312 319 326 323 320 314 314 315 318 318 316 316 316 318 317 315 315 313 314 314 315 315 315 314 314 314 315 314 315 316 313 312 314 316 317 319 322 324 325
314 311 310 311 311 313 317 320 324 324 319 316 317 318 318 317 316 317 318 319 316 316 314 314 315 315 316 316 317 318 316 316 316 316 315 316 316 314 315 317 318 319 321 322 321
313 311 311 312 313 314 316 322 325 323 311 315 316 316 318 318 317 318 318 318 315 313 314 317 316 316 315 316 316 319 317 315 316 317 319 314 320 316 316 317 316 317 319 319 319
313 312 312 314 318 320 325 318 321 322 312 313 316 317 318 318 316 318 320 319 315 315 315 318 317 316 316 317 318 319 315 315 314 313 314 316 317 314 316 318 317 316 317 317 317
313 313 315 322 323 326 318 318 319 314 314 315 316 316 317 317 317 318 319 318 317 315 314 316 316 316 317 316 316 316 317 316 315 315 316 316 315 315 315 316 316 316 317 316 316
315 315 316 324 327 320 319 317 312 315 316 315 316 316 316 316 316 315 314 314 316 317 317 315 316 314 316 318 315 315 316 318 319 315 318 316 317 315 314 314 316 316 317 316 316
318 318 319 325 321 320 320 311 317 317 316 314 316 315 318 318 317 315 315 315 314 315 315 317 315 316 314 317 317 315 316 317 320 316 318 315 319 316 312 315 318 318 317 316 316
317 319 324 318 318 319 318 309 315 315 315 316 317 318 319 318 317 316 315 315 315 315 319 317 317 315 315 315 316 316 314 313 314 311 315 314 315 314 313 313 315 316 315 315 315
318 323 318 316 317 318 313 314 320 319 317 316 317 317 318 318 318 317 318 317 317 316 314 316 316 315 315 316 314 315 312 314 310 314 315 314 315 315 315 314 313 312 314 314 313
321 319 319 317 317 317 309 315 320 321 319 317 317 317 317 317 317 318 318 318 318 318 316 314 313 314 315 315 315 315 314 311 311 309 311 311 314 310 313 314 311 310 313 313 313
320 310 318 316 312 310 311 318 321 318 318 320 318 317 316 319 320 320 319 318 317 318 316 314 312 312 315 314 314 314 314 309 307 312 306 305 309 307 307 310 311 310 310 310 310
317 323 321 316 307 303 311 319 319 317 318 319 320 319 318 319 320 320 319 317 314 316 315 313 312 313 315 313 312 316 315 310 307 306 312 308 309 308 309 308 309 309 308 308 308
317 317 324 321 310 310 314 316 319 319 319 319 319 318 318 320 318 319 320 317 314 315 316 313 311 312 313 313 311 313 315 311 310 307 309 308 310 312 309 307 307 308 308 308 308
317 316 320 311 312 311 312 318 319 320 319 318 319 319 319 321 320 320 319 316 315 316 315 310 313 312 312 311 312 312 312 312 312 310 311 311 309 309 309 307 308 309 308 308 308
319 315 315 313 317 317 314 317 318 319 319 319 318 319 318 316 317 318 316 313 313 315 313 307 309 308 315 311 309 312 310 310 311 311 310 312 311 310 309 309 308 309 309 308 308
321 320 319 308 310 315 313 319 318 317 319 318 317 316 317 318 317 315 314 313 314 314 309 305 304 304 304 306 305 306 308 309 309 309 309 311 310 308 308 308 309 309 309 310 308
Wind_Speed
22 23 23 24 23 23 23 21 18 16 15 14 13 12 12 12 13 17 21 10 6 7 8 8 10 6 5 4 6 2 4 0 5 4 3 8 4 5 6 14 4 1 10 25 26
22 23 23 23 23 22 22 20 18 15 14 14 11 11 9 11 16 20 12 9 10 9 10 10 7 6 5 4 5 3 3 9 5 4 9 22 8 12 7 8 3 7 12 30 28
22 24 23 22 22 21 20 18 17 14 13 11 9 8 7 11 16 4 3 14 13 11 8 9 7 7 5 4 5 4 4 6 3 11 14 10 7 7 18 2 10 25 32 32 30
22 22 22 21 21 20 18 17 14 14 10 8 7 6 6 9 2 3 4 6 9 10 10 11 7 5 3 3 4 1 8 7 10 16 10 12 9 7 7 4 18 21 28 33 32
20 20 21 19 19 17 16 14 12 11 8 7 6 5 6 6 7 6 1 6 11 14 16 14 13 8 5 7 5 3 4 4 9 11 16 15 7 7 5 6 20 25 29 30 31
19 18 18 18 17 14 14 11 9 7 7 8 6 5 5 5 3 3 6 7 10 12 17 18 9 15 9 5 6 8 5 5 3 13 11 9 4 3 3 15 22 27 28 27 26
16 16 16 16 13 12 11 8 6 6 7 7 5 6 9 13 3 11 8 4 6 9 11 11 18 12 8 4 6 9 5 6 7 4 4 14 4 1 4 20 26 30 29 28 28
15 14 13 13 9 8 6 5 6 7 7 5 5 5 9 3 7 5 3 4 4 4 7 9 7 15 5 12 6 6 5 4 3 3 3 5 4 8 7 23 22 23 21 21 18
14 12 11 8 6 5 6 6 7 7 5 4 4 5 8 2 4 2 3 3 3 2 3 4 12 6 8 5 5 6 3 3 1 3 3 5 2 12 3 16 11 11 11 12 15
13 10 8 6 6 8 10 9 7 4 5 3 4 3 7 1 6 5 3 5 2 4 0 3 6 5 5 5 4 5 3 1 4 1 12 8 5 7 10 11 11 11 10 10 10
11 7 6 8 10 12 13 9 2 2 10 7 1 3 5 5 5 6 4 3 3 5 3 7 8 4 3 4 4 4 4 3 2 4 8 5 6 9 16 17 16 17 17 16 13
8 7 10 12 15 14 12 4 1 1 4 13 15 13 11 5 1 5 2 1 3 3 1 7 4 2 3 4 6 6 6 3 3 4 9 10 10 7 14 7 13 23 25 28 27
8 11 14 15 14 14 9 1 2 5 1 2 3 4 2 4 4 5 3 3 2 3 5 6 2 2 1 5 6 4 4 3 5 10 6 7 6 7 6 11 15 22 26 23 21
11 15 16 16 11 8 5 1 3 2 5 5 1 1 2 5 4 2 2 3 4 5 6 5 3 3 5 6 4 3 1 5 7 4 4 2 2 2 2 2 3 12 17 18 21
16 18 18 15 7 7 2 3 2 0 4 4 3 1 3 3 6 3 7 3 4 4 5 3 2 5 7 1 3 3 6 6 3 5 5 4 5 3 3 4 5 9 14 18 20
20 21 19 11 7 5 3 4 2 6 3 2 2 1 3 4 3 3 5 11 7 6 6 3 3 4 1 3 2 4 6 6 4 3 2 4 5 4 7 7 5 9 16 18 18
21 21 19 10 8 5 5 1 5 4 1 2 3 2 3 5 6 5 5 6 4 5 4 6 4 4 2 3 3 6 5 3 3 3 4 1 3 6 11 7 11 17 20 18 18
21 20 16 10 8 6 2 6 2 3 5 1 3 3 4 2 4 5 3 3 5 5 3 4 5 3 4 2 4 2 5 5 6 3 3 3 3 4 7 20 26 25 19 18 17
22 20 14 12 10 7 3 4 6 6 3 5 4 4 1 2 5 4 3 2 1 1 5 4 1 3 2 1 3 2 2 3 7 3 3 3 4 4 4 5 16 21 16 17 16
24 19 15 14 11 7 5 4 3 4 2 3 4 3 4 3 3 3 1 1 2 1 3 5 4 2 3 2 7 2 5 3 3 3 2 3 4 4 5 9 8 9 17 18 19
22 11 16 15 12 6 4 5 5 7 4 3 5 4 3 4 3 2 3 1 0 2 3 3 4 4 1 3 2 2 2 6 5 3 4 1 5 4 9 11 9 14 20 23 25
16 3 18 17 5 1 4 4 4 4 1 2 4 3 5 3 4 3 5 2 2 1 3 1 5 2 2 2 2 1 3 4 5 3 1 3 5 4 8 13 17 18 21 24 24
15 5 17 19 4 2 2 2 3 3 2 2 2 3 3 4 5 2 3 0 1 1 5 5 1 3 6 5 4 2 3 4 5 3 4 4 5 4 7 11 14 23 24 23 21
14 2 4 8 4 9 4 3 4 2 0 3 3 4 4 3 5 5 3 2 2 3 6 4 3 5 6 4 2 3 4 4 5 3 3 6 4 3 4 7 14 22 24 21 17
13 5 8 3 1 5 5 3 3 2 2 3 3 3 5 4 2 3 2 2 4 2 4 4 4 2 2 4 2 1 4 6 6 5 6 5 7 6 11 10 21 26 22 19 16
12 7 6 3 19 7 5 7 6 2 2 1 5 2 2 5 6 8 6 3 4 4 3 4 3 0 0 4 5 3 5 6 4 3 7 2 7 5 8 17 21 26 23 20 17
12 11 12 2 4 6 6 6 8 5 3 1 6 5 4 1 7 14 11 12 6 5 3 3 5 3 3 3 5 6 8 8 5 4 6 6 8 8 5 17 26 26 23 21 17
Wind_Direction
298 300 303 303 304 301 297 295 292 286 279 273 272 285 289 289 287 281 268 255 216 191 184 180 194 216 222 211 223 200 61 34 157 180 115 92 119 173 113 133 80 222 165 161 159
297 299 303 302 301 297 294 290 285 280 269 267 278 286 293 300 298 284 296 232 191 190 210 197 203 201 193 210 207 113 109 198 221 234 155 171 154 152 127 131 74 142 154 157 162
297 300 302 300 296 292 289 284 281 274 267 272 277 279 294 306 312 346 139 174 184 205 219 223 231 216 216 198 204 152 188 184 253 224 185 137 102 129 133 228 186 150 155 166 168
296 299 299 296 291 287 284 278 276 268 266 266 265 264 284 306 308 23 182 200 195 204 211 202 207 209 200 197 201 150 222 215 209 199 129 132 116 118 151 204 179 162 162 169 175
296 298 297 293 286 283 279 273 269 267 258 253 234 247 290 285 263 40 166 193 210 220 222 210 200 194 187 192 151 209 332 9 142 147 129 134 131 170 218 155 166 162 169 177 182
294 297 296 292 280 277 272 266 261 249 241 224 222 258 270 263 213 346 351 242 235 229 226 217 219 210 206 181 170 175 95 39 65 123 125 123 101 123 240 168 164 172 180 183 190
292 298 298 287 278 271 266 259 242 228 217 211 228 257 257 236 296 320 326 275 283 272 243 237 220 192 209 122 130 105 70 20 23 47 87 109 31 9 189 166 167 181 186 190 194
290 295 294 280 273 259 244 227 208 195 196 217 251 260 255 291 287 292 272 323 311 268 260 260 214 224 211 124 46 64 50 92 292 45 53 94 260 8 178 170 171 184 189 198 198
287 288 281 269 248 220 196 180 173 180 204 235 239 225 267 276 238 259 261 324 311 297 303 241 151 141 123 93 48 20 161 124 28 54 105 58 10 340 208 181 150 162 175 191 200
279 276 266 238 201 175 161 160 169 200 213 202 218 243 260 124 196 237 261 329 345 326 213 94 64 70 42 68 177 201 150 127 184 23 46 64 13 344 44 143 107 121 142 154 176
269 256 226 196 177 164 156 155 185 247 215 209 199 247 321 5 175 228 251 300 8 46 46 23 69 108 196 187 163 164 116 162 349 73 74 71 59 21 55 89 101 112 121 123 122
248 212 187 168 164 164 177 196 147 8 274 247 261 270 282 283 287 231 221 125 88 132 235 35 81 209 173 99 98 82 101 80 131 23 91 91 56 30 39 50 102 118 114 111 104
211 184 174 164 172 181 176 118 329 304 227 237 247 259 324 175 157 145 182 143 118 78 53 118 134 59 74 51 79 58 116 213 132 97 94 83 43 22 15 75 111 122 123 122 119
192 177 169 164 179 199 228 350 360 352 70 296 300 330 166 149 47 95 139 183 42 126 107 98 25 139 69 68 90 84 77 98 137 90 148 31 168 58 350 40 30 139 136 126 122
184 170 166 169 168 187 117 21 49 121 83 250 248 198 111 140 145 37 44 108 110 105 90 255 75 75 63 84 77 110 99 135 100 81 100 12 89 255 135 229 210 189 158 140 137
180 173 171 177 180 164 45 53 114 47 255 196 211 127 66 51 44 55 70 77 85 72 41 52 37 49 107 64 56 134 85 50 54 79 45 217 124 238 196 192 184 195 176 160 151
182 178 172 169 159 129 65 96 42 119 308 188 154 96 74 22 29 38 32 25 98 84 24 11 346 333 33 91 43 70 64 12 9 10 219 344 113 231 206 184 186 188 188 169 159
179 177 173 163 147 143 63 56 148 240 212 116 116 78 130 141 20 18 64 48 27 77 104 125 338 9 346 104 160 99 146 153 200 186 223 26 236 252 215 189 190 188 186 175 179
177 176 171 150 140 136 114 69 211 217 200 147 63 100 118 87 116 81 61 119 26 21 131 142 283 321 39 53 121 172 59 161 109 2 78 253 287 321 90 159 184 199 200 183 182
177 171 163 146 138 148 80 214 243 226 292 127 140 135 160 151 88 85 132 279 147 74 186 190 104 45 323 93 44 136 143 66 9 135 271 290 274 232 191 200 193 183 194 185 175
177 164 168 154 149 132 148 225 277 263 224 132 170 145 163 142 111 93 165 315 6 24 85 120 97 280 27 28 166 22 45 57 106 102 157 220 261 224 213 200 181 191 196 185 176
180 117 169 165 91 52 148 194 302 285 58 101 106 105 145 127 102 117 184 240 1 231 132 60 123 128 182 270 253 151 132 123 110 205 67 145 273 354 262 202 177 183 181 174 170
173 116 174 180 139 284 263 281 257 307 343 64 113 107 80 123 103 141 154 188 23 118 158 179 20 61 355 356 345 170 115 97 105 90 196 128 264 16 75 109 164 162 167 162 161
166 101 138 192 168 142 138 258 276 255 331 75 118 91 97 73 29 148 132 31 65 97 103 110 92 153 182 198 189 172 156 140 117 116 187 227 261 224 185 157 153 163 165 165 170
173 183 163 198 253 133 139 188 197 227 71 46 49 104 145 113 67 104 111 102 50 68 50 84 124 89 65 18 334 259 187 177 187 182 175 245 210 232 204 191 176 173 172 177 188
168 138 152 155 162 117 144 206 192 181 73 339 119 98 72 146 175 192 136 172 184 45 69 11 165 38 125 3 5 286 259 215 213 203 257 275 275 207 192 187 181 183 187 196 205
164 170 179 142 118 114 195 181 204 144 40 153 163 106 69 125 108 104 108 97 106 126 109 76 132 96 262 359 339 336 224 200 197 191 160 197 236 158 177 187 190 192 200 210 217